Regional Weather Roundup
Issued by NWS

Home | Current Version | Previous Version | Graphics & Text | Print | Product List | Glossary On
Versions: 1 2 3 4 5 6 7 8 9 10 11 12 13 14 15 16 17 18 19 20 21 22 23 24 25 26 27
000
ASUS45 KSLC 281610
RWRUT

UTAH REGIONAL WEATHER ROUNDUP
NATIONAL WEATHER SERVICE SALT LAKE CITY UT
1000 AM MDT SUN AUG 28 2016

UTZ001>011-023>025-281700-

NORTHERN UTAH

CITY           SKY/WX    TMP DP  RH WIND       PRES   REMARKS
BRIGHAM CITY     N/A     72  38  28 CALM      30.18R
HILL AFB       SUNNY     69  33  26 E12       30.19R
LOGAN          SUNNY     63  35  35 CALM      30.18S
OGDEN          SUNNY     71  36  27 CALM      30.17R
PROVO AIRPORT  SUNNY     70  43  37 SE5       30.21S
SALT LAKE CITY SUNNY     76  43  30 SE13      30.15S
VERNAL         SUNNY     67  45  45 VRB3      30.26R
WENDOVER       SUNNY     70  30  23 W3        30.16R
HEBER CITY     SUNNY     59  37  44 CALM      30.26S
WEST JORDAN    SUNNY     71  43  36 SE13      30.19R

$$

UTZ012>022-026-027-281700-

SOUTHERN/CENTRAL UTAH

CITY           SKY/WX    TMP DP  RH WIND       PRES   REMARKS
BLANDING       SUNNY     66  49  53 CALM      30.38S
BRYCE CANYON   SUNNY     60  44  55 CALM      30.40R
CEDAR CITY     SUNNY     64  47  53 NW3       30.27S
MILFORD        SUNNY     67  48  50 SW18      30.23R
MOAB/CYNLANDS  MOSUNNY   70  50  49 SE9       30.22R
PRICE          SUNNY     67  42  40 SE3       30.30R
ST GEORGE      SUNNY     70  54  56 W3        30.19R

$$

REGIONAL REPORTS     COLORADO/ARIZONA

CITY           SKY/WX    TMP DP  RH WIND       PRES   REMARKS
CRAIG, CO      SUNNY     66  38  35 NE6       30.30F
GRAND JUNCTION MOSUNNY   64  50  60 CALM      30.26R
RIFLE          CLOUDY    60  49  66 NE3       30.30S
MONTROSE       CLOUDY    62  47  57 S5        30.32R
CORTEZ         CLOUDY    63  51  65 SW5       30.31S
PAGE, AZ       SUNNY     69  52  54 NW5       30.22S
GRAND CANYON   SUNNY     63  50  62 NE10      30.35R
KINGMAN        SUNNY     74  54  49 N5        30.16R
FLAGSTAFF      CLOUDY    58  49  72 NE8       30.35R

$$

REGIONAL REPORTS    NEVADA/IDAHO/WYOMING

CITY           SKY/WX    TMP DP  RH WIND       PRES   REMARKS
LAS VEGAS, NV  SUNNY     81  50  33 NE5       30.07R
ELY            SUNNY     64  42  44 S7        30.31R
ELKO           SUNNY     62  22  21 VRB3      30.23R
POCATELLO, ID  SUNNY     71  32  23 W3        30.15S
BURLEY         SUNNY     68  42  38 W12G18    30.14R
EVANSTON, WY   SUNNY     66  31  27 SW8       30.33R
ROCK SPRINGS   SUNNY     66  28  24 CALM      30.31R

$$




USA.gov is the U.S. government's official web portal to all federal, state and local government web resources and services.